Weather History for KLAM - May, 2013

Change the Weather History Date:

Wednesday, May 29, 2013

  Actual Average Record
Temperature  
Mean Temperature 62 °F -  
Max Temperature 71 °F 71 °F 85 °F (1951)
Min Temperature 54 °F 46 °F 36 °F (1975)
Degree Days  
Heating Degree Days 2    
Growing Degree Days 12 (Base 50)    
Moisture  
Dew Point 21 °F    
Average Humidity 22    
Maximum Humidity 40    
Minimum Humidity 11    
Precipitation  
Precipitation 0.00 in - - ()
Sea Level Pressure  
Sea Level Pressure 29.85 in    
Wind  
Wind Speed 10 mph (WSW)    
Max Wind Speed 29 mph    
Max Gust Speed 36 mph    
Visibility 10 miles    
Events      
Averages and records for this station are not official NWS values.
T = Trace of Precipitation, MM = Missing Value Source: NWS Daily Summary

Daily Weather History Graph

Daily Weather History Graph

Search for Another Location

Airport or City:

Trip Planner

Search our weather history database for the weather conditions in past years. The results will help you decide how hot, cold, wet, or windy it might be!

Date:

Astronomy

May. 29, 2013 Rise Set
Actual Time 5:51 AM MDT 8:14 PM MDT
Civil Twilight 5:21 AM MDT 8:43 PM MDT
Nautical Twilight 4:45 AM MDT 9:20 PM MDT
Astronomical Twilight 4:05 AM MDT 10:00 PM MDT
Moon No Moon Rise 10:48 AM MDT (5/29)
Length of Visible Light 15h 22m
Length of Day
14h 23m
Waning Gibbous, 72% of the Moon is Illuminated
May 29
Waning Gibbous
May 31
Last Quarter
Jun 8
New
Jun 16
First Quarter
Jun 23
Full

Hourly Weather History & Observations

Time (MDT) Temp. Dew Point Humidity Pressure Visibility Wind Dir Wind Speed Gust Speed Precip Events Conditions
12:15 AM 63.5 °F 14.0 °F 15% 29.87 in 10.0 mi SW 8.1 mph 20.7 mph N/A   Clear
12:35 AM 62.4 °F 14.0 °F 15% 29.87 in 10.0 mi South 3.5 mph - N/A   Clear
12:55 AM 61.7 °F 14.0 °F 16% 29.87 in 10.0 mi SSE 9.2 mph - N/A   Clear
1:15 AM 61.5 °F 15.8 °F 17% 29.86 in 10.0 mi South 10.4 mph - N/A   Clear
1:35 AM 61.0 °F 17.2 °F 18% 29.85 in 10.0 mi South 9.2 mph - N/A   Clear
1:55 AM 60.1 °F 19.4 °F 21% 29.86 in 10.0 mi WSW 6.9 mph 23.0 mph N/A   Clear
2:15 AM 59.9 °F 21.2 °F 22% 29.85 in 10.0 mi West 17.3 mph 25.3 mph N/A   Clear
2:35 AM 59.9 °F 22.3 °F 24% 29.85 in 10.0 mi WNW 8.1 mph 21.9 mph N/A   Clear
2:55 AM 58.3 °F 22.5 °F 25% 29.86 in 10.0 mi ESE 3.5 mph - N/A   Scattered Clouds
3:15 AM 59.0 °F 25.2 °F 27% 29.85 in 10.0 mi NNW 6.9 mph - N/A   Scattered Clouds
3:35 AM 59.0 °F 27.5 °F 30% 29.86 in 10.0 mi North 3.5 mph - N/A   Scattered Clouds
3:55 AM 58.3 °F 28.6 °F 32% 29.86 in 10.0 mi North 3.5 mph - N/A   Mostly Cloudy
4:15 AM 57.7 °F 30.4 °F 35% 29.85 in 10.0 mi NNW 4.6 mph - N/A   Overcast
4:35 AM 57.4 °F 30.7 °F 36% 29.85 in 10.0 mi East 3.5 mph - N/A   Overcast
4:55 AM 57.4 °F 31.8 °F 38% 29.85 in 10.0 mi West 4.6 mph - N/A   Overcast
5:15 AM 57.0 °F 31.6 °F 38% 29.86 in 10.0 mi SE 3.5 mph - N/A   Overcast
5:35 AM 56.7 °F 32.0 °F 39% 29.86 in 10.0 mi South 4.6 mph - N/A   Overcast
5:55 AM 56.8 °F 32.9 °F 40% 29.86 in 10.0 mi SSW 3.5 mph - N/A   Overcast
6:15 AM 56.5 °F 31.5 °F 39% 29.87 in 10.0 mi South 6.9 mph - N/A   Overcast
6:35 AM 55.9 °F 29.8 °F 37% 29.87 in 10.0 mi ESE 8.1 mph - N/A   Mostly Cloudy
6:55 AM 54.5 °F 29.3 °F 38% 29.88 in 10.0 mi East 3.5 mph - N/A   Scattered Clouds
7:15 AM 54.7 °F 30.7 °F 40% 29.88 in 10.0 mi ESE 5.8 mph - N/A   Clear
7:35 AM 56.5 °F 32.0 °F 39% 29.87 in 10.0 mi East 5.8 mph - N/A   Clear
7:55 AM 57.6 °F 32.7 °F 39% 29.87 in 7.0 mi East 4.6 mph - N/A   Scattered Clouds
8:15 AM 58.5 °F 33.6 °F 39% 29.87 in 10.0 mi ENE 6.9 mph - N/A   Scattered Clouds
8:35 AM 59.4 °F 32.7 °F 37% 29.87 in 7.0 mi Calm Calm - N/A   Clear
8:55 AM 59.9 °F 32.7 °F 36% 29.87 in 10.0 mi Calm Calm - N/A   Scattered Clouds
9:15 AM 60.4 °F 32.4 °F 35% 29.87 in 10.0 mi SE 4.6 mph - N/A   Scattered Clouds
9:35 AM 62.1 °F 31.3 °F 31% 29.86 in 10.0 mi SSW 5.8 mph - N/A   Mostly Cloudy
9:55 AM 62.6 °F 29.3 °F 28% 29.85 in 10.0 mi West 13.8 mph 19.6 mph N/A   Mostly Cloudy
10:15 AM 63.1 °F 23.9 °F 22% 29.85 in 10.0 mi SW 15.0 mph 29.9 mph N/A   Mostly Cloudy
10:35 AM 63.0 °F 27.0 °F 26% 29.86 in 10.0 mi SW 12.7 mph 23.0 mph N/A   Mostly Cloudy
10:55 AM 65.8 °F 25.3 °F 22% 29.87 in 10.0 mi WSW 17.3 mph 26.5 mph N/A   Scattered Clouds
11:15 AM 64.8 °F 24.4 °F 22% 29.86 in 10.0 mi WSW 17.3 mph 32.2 mph N/A   Mostly Cloudy
11:35 AM 65.5 °F 25.2 °F 22% 29.85 in 10.0 mi SW 8.1 mph 21.9 mph N/A   Overcast
11:55 AM 66.0 °F 24.4 °F 21% 29.85 in 10.0 mi SW 17.3 mph 29.9 mph N/A   Mostly Cloudy
12:15 PM 65.1 °F 23.0 °F 20% 29.87 in 10.0 mi WSW 16.1 mph 31.1 mph N/A   Scattered Clouds
12:35 PM 66.7 °F 23.4 °F 19% 29.87 in 10.0 mi SW 15.0 mph 31.1 mph N/A   Scattered Clouds
12:55 PM 65.1 °F 21.9 °F 19% 29.87 in 10.0 mi WSW 20.7 mph 26.5 mph N/A   Scattered Clouds
1:15 PM 66.9 °F 19.9 °F 17% 29.86 in 10.0 mi WSW 18.4 mph 25.3 mph N/A   Clear
1:35 PM 66.6 °F 19.8 °F 17% 29.86 in 10.0 mi West 13.8 mph 23.0 mph N/A   Clear
1:55 PM 67.5 °F 18.9 °F 16% 29.86 in 10.0 mi SW 19.6 mph 31.1 mph N/A   Clear
2:15 PM 67.5 °F 20.8 °F 17% 29.85 in 10.0 mi West 25.3 mph 32.2 mph N/A   Clear
2:35 PM 67.3 °F 18.3 °F 15% 29.85 in 10.0 mi West 9.2 mph 28.8 mph N/A   Clear
2:55 PM 68.4 °F 19.2 °F 15% 29.84 in 10.0 mi West 10.4 mph 25.3 mph N/A   Scattered Clouds
3:15 PM 68.9 °F 19.8 °F 15% 29.83 in 10.0 mi SW 13.8 mph 21.9 mph N/A   Mostly Cloudy
3:35 PM 70.5 °F 17.6 °F 13% 29.83 in 10.0 mi WSW 18.4 mph 26.5 mph N/A   Scattered Clouds
3:55 PM 69.6 °F 15.3 °F 12% 29.82 in 10.0 mi WSW 18.4 mph 27.6 mph N/A   Scattered Clouds
4:15 PM 71.4 °F 15.8 °F 12% 29.81 in 10.0 mi SW 12.7 mph 31.1 mph N/A   Clear
4:35 PM 70.5 °F 14.9 °F 12% 29.80 in 10.0 mi West 19.6 mph 35.7 mph N/A   Clear
4:55 PM 70.3 °F 14.5 °F 12% 29.79 in 10.0 mi West 24.2 mph 35.7 mph N/A   Clear
5:15 PM 70.5 °F 14.7 °F 12% 29.79 in 10.0 mi WSW 19.6 mph 32.2 mph N/A   Clear
5:35 PM 70.5 °F 16.3 °F 13% 29.79 in 10.0 mi WSW 16.1 mph 31.1 mph N/A   Clear
5:55 PM 70.3 °F 17.2 °F 13% 29.78 in 10.0 mi West 20.7 mph 32.2 mph N/A   Clear
6:15 PM 70.0 °F 15.3 °F 12% 29.78 in 10.0 mi WSW 28.8 mph 33.4 mph N/A   Clear
6:35 PM 69.6 °F 13.5 °F 12% 29.78 in 10.0 mi WSW 25.3 mph 31.1 mph N/A   Clear
6:55 PM 68.7 °F 13.5 °F 12% 29.79 in 10.0 mi West 25.3 mph 34.5 mph N/A   Clear
7:15 PM 68.0 °F 12.0 °F 11% 29.80 in 10.0 mi WSW 19.6 mph 26.5 mph N/A   Clear
7:35 PM 66.9 °F 9.9 °F 11% 29.81 in 10.0 mi West 16.1 mph 27.6 mph N/A   Clear
7:55 PM 66.4 °F 10.0 °F 11% 29.82 in 10.0 mi WSW 17.3 mph 31.1 mph N/A   Clear
8:15 PM 65.5 °F 10.8 °F 12% 29.84 in 10.0 mi West 16.1 mph 31.1 mph N/A   Clear
8:35 PM 64.6 °F 11.3 °F 13% 29.85 in 10.0 mi West 9.2 mph 21.9 mph N/A   Clear
8:55 PM 64.4 °F 11.3 °F 13% 29.85 in 10.0 mi West 16.1 mph 26.5 mph N/A   Clear
9:15 PM 63.5 °F 11.8 °F 13% 29.86 in 10.0 mi WNW 10.4 mph 16.1 mph N/A   Clear
9:35 PM 62.6 °F 12.2 °F 14% 29.87 in 10.0 mi WNW 8.1 mph - N/A   Clear
9:55 PM 62.1 °F 12.2 °F 14% 29.89 in 10.0 mi WNW 10.4 mph 17.3 mph N/A   Clear
10:15 PM 61.2 °F 12.4 °F 15% 29.90 in 10.0 mi WNW 8.1 mph - N/A   Clear
10:35 PM 60.8 °F 13.3 °F 16% 29.90 in 10.0 mi WNW 12.7 mph 18.4 mph N/A   Clear
10:55 PM 60.3 °F 13.8 °F 16% 29.89 in 10.0 mi WNW 13.8 mph 21.9 mph N/A   Clear
11:15 PM 59.9 °F 14.9 °F 17% 29.88 in 10.0 mi WNW 19.6 mph 25.3 mph N/A   Clear
11:35 PM 59.9 °F 15.4 °F 18% 29.89 in 10.0 mi NW 11.5 mph 21.9 mph N/A   Clear
11:55 PM 59.4 °F 16.2 °F 19% 29.89 in 10.0 mi NW 11.5 mph 24.2 mph N/A   Clear